Wetbulb
34.72 34.36 35.66 36.90 38.31 40.38 42.17 43.22 45.85 48.48 51.36 54.67 59.43 60.19 60.17 60.14 59.77 59.43 59.48 59.35 58.70 58.40 57.48 57.79 58.27 57.99 57.69 57.19 57.17 56.08 55.03 54.19
34.25 35.03 35.19 36.06 37.44 38.84 39.98 40.91 44.28 47.04 49.99 55.45 58.61 59.69 59.34 59.61 59.67 59.66 59.69 58.92 59.21 59.02 58.55 57.54 57.66 57.92 57.41 57.23 57.45 56.47 56.17 56.14
34.20 34.36 33.82 33.92 35.18 36.33 37.38 38.72 41.32 44.96 49.82 54.80 53.61 56.54 57.93 58.64 58.83 59.36 59.37 59.81 59.46 59.45 58.74 58.47 57.70 57.72 57.66 57.37 57.53 57.11 56.65 56.55
33.42 32.91 32.64 32.67 33.36 34.10 35.83 36.69 38.86 41.90 43.27 44.36 45.72 46.14 46.91 47.84 47.85 48.86 50.06 49.71 51.60 53.21 57.19 57.45 57.45 57.60 57.38 57.54 57.41 57.52 57.50 57.64
32.13 31.94 32.30 32.36 32.47 32.79 33.92 35.41 37.31 38.71 39.79 39.63 40.10 41.24 42.65 43.93 45.02 45.42 46.71 47.09 47.55 46.93 47.20 44.76 44.04 43.96 44.90 46.55 47.23 47.79 49.80 51.98
30.39 30.78 31.19 31.37 31.61 32.45 32.46 33.95 36.35 37.14 36.98 38.10 38.36 38.48 38.90 39.37 40.27 41.36 41.86 42.21 42.79 43.45 44.04 42.66 41.25 40.19 40.01 40.74 43.97 44.50 45.20 45.58
30.49 30.28 30.09 30.29 30.51 31.46 31.48 32.65 33.37 34.97 35.18 34.97 35.82 35.75 35.93 36.83 37.14 37.71 38.03 38.43 38.84 38.75 39.54 39.14 38.66 38.63 38.59 38.33 40.23 40.72 40.59 40.34
30.30 29.95 29.31 29.70 30.38 29.99 30.61 31.78 31.53 31.46 32.01 32.67 33.30 33.40 33.87 34.55 34.87 34.67 34.76 35.70 35.61 35.57 36.17 36.26 36.21 37.30 37.28 36.85 37.14 37.48 37.00 37.14
28.55 28.33 28.51 29.15 29.29 30.09 30.36 30.32 30.42 30.15 30.33 31.16 31.90 31.80 32.29 32.59 32.65 32.99 33.05 32.65 32.65 32.72 32.90 33.42 33.62 35.25 35.69 35.63 35.02 34.97 34.76 34.90
27.46 26.68 26.51 26.56 27.70 28.84 28.68 28.71 29.21 28.64 29.12 29.91 31.07 31.12 31.32 30.96 30.98 30.53 30.42 29.56 30.22 30.56 30.46 30.25 30.68 34.21 35.76 35.35 33.45 33.13 33.47 33.97
26.97 26.72 25.29 24.81 25.91 27.24 26.68 26.32 26.16 27.39 28.45 29.41 30.58 30.88 30.33 30.21 29.97 29.29 29.24 29.29 29.17 29.06 28.97 29.73 29.74 32.45 34.75 35.52 33.86 33.35 33.30 34.14
24.47 23.49 22.51 23.67 25.14 25.39 24.63 23.85 24.86 26.39 27.54 28.03 29.16 29.85 29.89 29.49 29.41 28.64 28.28 27.98 27.28 27.18 27.39 27.85 28.59 29.63 32.87 34.49 32.96 33.79 33.09 32.98
24.45 22.26 20.10 21.41 22.86 23.22 21.98 22.06 22.69 24.00 25.30 26.22 27.39 28.99 29.66 28.74 28.09 27.53 26.70 25.58 25.11 25.14 25.20 26.48 27.32 29.50 30.86 32.59 32.68 32.80 31.37 31.19
20.98 19.18 17.53 16.28 18.08 18.47 18.35 18.66 20.12 19.92 21.60 25.27 24.97 27.17 28.00 26.59 25.99 25.62 25.75 24.93 23.98 24.25 23.72 24.10 26.30 27.49 29.73 30.67 30.83 30.86 31.25 31.76
22.89 17.55 13.78 12.37 15.39 12.09 14.96 15.35 13.54 14.67 24.05 26.93 27.02 23.89 25.13 27.92 26.52 25.48 25.21 24.89 24.11 23.59 22.93 23.43 24.71 25.54 27.18 28.15 27.50 27.92 28.39 29.06
24.54 14.65 12.91 8.03 8.67 5.68 10.92 11.06 14.25 23.14 24.83 25.71 26.30 26.15 21.28 23.19 26.09 26.06 26.22 26.39 23.69 23.69 23.83 22.61 22.62 24.73 27.55 27.16 25.25 24.79 26.16 19.81
23.63 11.39 12.65 6.77 7.28 6.10 2.82 6.50 12.00 23.22 24.85 24.92 25.29 24.84 24.13 22.11 18.81 24.82 27.05 26.47 27.31 26.49 26.06 24.79 26.75 27.22 27.04 26.50 26.09 25.46 24.40 13.52
21.80 15.04 7.78 6.02 5.50 4.45 0.52 18.96 19.25 22.45 24.45 24.39 24.70 24.26 23.36 22.15 13.58 10.63 15.40 22.58 22.83 24.99 23.97 25.21 25.21 25.34 24.84 24.50 22.68 22.50 16.81 10.49
12.37 11.17 8.86 5.06 7.90 4.59 -1.21 17.40 21.64 19.64 23.50 24.11 23.79 23.45 22.61 20.25 6.33 3.02 2.90 2.35 4.22 13.81 21.00 21.68 23.10 22.82 22.28 20.61 16.09 10.29 11.06 5.77
7.80 8.87 5.47 5.97 9.73 0.92 -0.95 18.59 22.48 10.77 20.27 23.60 21.75 22.81 22.30 20.52 6.33 0.62 -1.10 -2.36 -3.15 1.10 14.13 10.46 18.19 18.69 17.65 15.40 2.67 -0.90 4.60 5.82
MSLP
1023.55 1022.91 1022.21 1021.36 1020.61 1019.81 1018.95 1018.02 1016.97 1015.99 1015.22 1014.53 1013.94 1014.16 1014.43 1014.77 1015.07 1015.39 1015.54 1015.74 1015.95 1016.13 1016.41 1016.45 1016.75 1017.17 1017.47 1017.89 1018.06 1018.43 1018.61 1018.91
1024.00 1023.39 1022.68 1021.93 1021.00 1020.20 1019.25 1018.18 1017.04 1016.07 1014.83 1013.77 1013.42 1013.57 1013.97 1014.35 1014.77 1014.92 1015.27 1015.32 1015.45 1015.63 1015.88 1016.11 1016.15 1016.37 1016.72 1016.79 1016.99 1017.29 1017.34 1017.60
1024.54 1023.83 1023.18 1022.42 1021.49 1020.57 1019.70 1018.72 1017.58 1016.25 1014.78 1013.36 1013.60 1013.77 1013.89 1014.28 1014.72 1014.86 1014.83 1015.01 1015.07 1015.01 1015.41 1015.62 1015.67 1015.61 1015.75 1015.81 1016.04 1015.97 1016.28 1016.28
1025.18 1024.55 1023.93 1023.01 1022.17 1021.06 1020.30 1019.56 1018.40 1017.07 1016.06 1015.12 1014.65 1015.09 1015.36 1015.53 1015.78 1015.81 1015.54 1015.49 1015.39 1015.43 1015.24 1015.34 1015.50 1015.51 1015.57 1015.63 1015.45 1015.43 1015.29 1015.24
1025.72 1025.25 1024.50 1023.57 1022.67 1021.89 1021.39 1020.48 1019.37 1018.19 1017.29 1016.53 1016.29 1016.07 1016.37 1016.59 1016.89 1016.65 1016.62 1016.51 1016.46 1016.88 1016.30 1016.89 1017.03 1017.02 1017.04 1016.78 1016.30 1015.96 1015.70 1015.45
1026.49 1025.85 1025.18 1024.33 1023.66 1023.01 1021.98 1021.29 1020.55 1019.41 1018.42 1018.18 1017.78 1017.44 1017.65 1017.82 1018.06 1018.14 1017.86 1017.63 1017.62 1017.53 1018.21 1017.43 1017.73 1018.26 1018.00 1017.45 1017.13 1016.88 1016.17 1016.12
1026.98 1026.50 1025.99 1025.35 1024.74 1023.89 1022.88 1022.62 1021.92 1020.83 1020.10 1019.58 1019.15 1018.75 1018.83 1018.91 1019.29 1019.03 1018.81 1018.88 1019.06 1018.76 1019.22 1019.19 1019.10 1019.06 1017.95 1018.43 1017.92 1017.59 1017.05 1017.10
1027.49 1027.11 1026.66 1026.21 1025.74 1024.97 1024.48 1023.85 1023.11 1022.43 1021.68 1021.08 1020.74 1020.35 1019.83 1019.89 1020.07 1019.81 1019.78 1020.33 1020.27 1019.87 1020.06 1019.78 1019.88 1019.73 1019.07 1019.35 1018.92 1018.24 1017.82 1017.99
1027.93 1027.53 1027.23 1026.63 1026.03 1025.67 1025.23 1024.70 1024.11 1023.50 1023.04 1022.50 1021.88 1021.92 1021.41 1020.98 1021.06 1020.85 1021.02 1021.03 1020.83 1020.63 1020.89 1020.58 1020.72 1020.05 1019.54 1019.52 1019.18 1018.96 1018.75 1017.99
1028.03 1027.98 1027.70 1027.47 1027.05 1026.43 1026.00 1025.48 1024.79 1024.60 1024.37 1023.56 1023.54 1023.03 1022.23 1021.95 1021.95 1021.97 1022.28 1021.87 1021.63 1021.69 1021.70 1021.55 1021.43 1020.98 1020.36 1019.80 1019.51 1019.03 1018.66 1018.21
1028.45 1028.34 1028.20 1028.11 1027.69 1027.33 1027.21 1026.84 1026.29 1025.55 1025.12 1024.64 1024.25 1023.58 1023.31 1023.06 1022.49 1022.87 1022.69 1022.56 1022.51 1022.49 1022.48 1022.29 1021.90 1021.28 1020.67 1020.00 1019.33 1018.94 1018.31 1017.89
1028.92 1029.12 1029.09 1028.84 1028.51 1028.35 1028.22 1027.96 1027.48 1026.72 1026.03 1025.54 1025.02 1024.59 1024.26 1023.69 1023.64 1023.63 1023.36 1023.31 1023.19 1023.15 1022.92 1022.50 1022.07 1021.43 1020.97 1020.36 1019.71 1019.24 1018.71 1018.15
1029.07 1029.60 1029.57 1029.44 1029.21 1029.14 1028.89 1028.57 1027.89 1027.23 1026.74 1026.28 1025.77 1025.26 1024.74 1024.32 1024.19 1024.27 1024.00 1023.62 1023.57 1023.30 1023.00 1022.80 1022.61 1022.25 1021.80 1021.35 1020.85 1020.23 1019.44 1018.72
1029.35 1029.82 1029.94 1029.93 1029.93 1029.80 1029.51 1029.05 1028.41 1027.83 1027.35 1026.79 1026.33 1025.89 1025.45 1025.24 1025.19 1024.90 1024.67 1024.55 1024.49 1024.27 1024.12 1023.83 1023.42 1022.93 1022.43 1021.75 1021.18 1020.43 1019.58 1019.02
1029.58 1030.12 1030.36 1030.29 1030.16 1030.23 1029.86 1029.47 1028.97 1028.62 1027.80 1027.19 1026.72 1026.55 1026.23 1025.88 1025.80 1025.74 1025.62 1025.47 1025.44 1025.40 1025.33 1025.03 1024.30 1023.67 1022.83 1022.13 1021.52 1020.79 1020.03 1019.33
1029.53 1030.15 1030.38 1030.62 1030.67 1030.35 1030.15 1029.80 1029.49 1028.76 1028.23 1027.75 1027.34 1027.05 1026.96 1026.72 1026.50 1026.41 1026.52 1026.38 1026.37 1026.28 1026.05 1025.64 1024.95 1024.41 1023.71 1022.92 1022.22 1021.48 1020.81 1020.12
1029.47 1029.95 1030.17 1030.61 1030.79 1030.51 1030.42 1029.98 1029.52 1028.95 1028.38 1028.00 1027.64 1027.47 1027.38 1027.50 1027.59 1027.24 1026.92 1027.02 1026.76 1026.77 1026.37 1026.15 1025.59 1024.91 1024.16 1023.57 1023.07 1022.36 1021.71 1021.47
1028.92 1029.27 1029.81 1030.27 1030.56 1030.34 1030.26 1029.91 1029.54 1029.04 1028.59 1028.37 1028.21 1028.24 1028.33 1028.46 1028.71 1028.69 1028.01 1027.66 1027.59 1027.22 1027.08 1026.45 1025.95 1025.47 1025.08 1024.34 1023.93 1023.44 1022.90 1023.01
1028.07 1028.75 1029.28 1029.68 1029.82 1029.70 1029.85 1029.76 1029.49 1029.26 1028.76 1028.59 1028.60 1028.70 1028.90 1029.19 1029.79 1030.05 1029.81 1029.48 1029.02 1028.30 1027.39 1026.84 1026.17 1025.83 1025.43 1024.94 1024.56 1024.65 1024.61 1025.39
1027.93 1028.25 1028.63 1029.03 1029.08 1029.39 1029.53 1029.39 1029.11 1029.17 1028.77 1028.51 1028.73 1028.91 1029.14 1029.42 1030.15 1030.61 1030.67 1030.45 1030.19 1029.27 1027.88 1027.86 1026.86 1026.49 1026.37 1026.47 1026.83 1027.12 1026.89 1026.71
Wind_Speed
15 15 13 13 12 13 14 13 13 15 13 11 13 12 12 10 11 11 11 11 10 12 12 14 14 14 14 13 14 14 12 11
14 14 13 13 13 12 11 13 12 12 14 11 10 10 9 8 8 9 8 8 10 11 12 13 14 13 13 15 16 16 16 16
15 15 13 13 13 13 13 13 13 11 11 4 6 5 1 3 5 6 9 10 11 11 11 12 13 13 14 16 15 16 16 16
12 12 12 13 13 15 14 14 13 11 10 10 12 11 11 10 10 9 8 12 11 8 6 8 8 10 10 13 13 14 16 17
13 12 12 13 15 16 15 14 13 11 11 12 12 13 12 12 10 9 10 9 10 10 11 12 13 12 10 9 8 7 7 8
13 13 13 14 14 14 15 16 13 12 12 12 11 13 13 13 11 10 11 12 10 10 9 10 12 9 11 10 8 9 8 7
11 13 13 13 13 14 14 14 13 12 12 12 12 12 12 12 11 11 11 12 11 11 9 9 8 15 18 14 7 8 7 9
9 10 11 11 11 13 13 12 12 12 12 12 12 12 12 11 11 12 13 9 9 11 9 10 10 19 19 14 6 6 6 7
5 7 9 11 12 11 11 11 10 12 13 11 12 10 10 11 11 11 9 9 10 11 10 10 9 21 21 16 9 7 7 7
4 4 6 8 10 10 11 10 11 12 11 12 9 8 10 11 10 9 7 8 8 8 9 9 8 19 18 13 5 7 9 7
6 4 7 9 9 8 9 9 11 11 10 10 9 10 11 9 10 6 6 8 6 8 7 10 9 18 23 19 6 7 7 10
4 5 5 7 7 7 6 8 8 7 7 7 8 8 7 8 8 7 8 7 8 7 6 8 11 14 25 26 11 9 8 7
3 3 4 5 5 5 6 8 7 6 6 7 7 6 6 8 9 9 8 9 10 10 9 9 11 18 20 22 21 18 9 9
4 1 3 5 4 3 5 6 6 5 5 5 5 7 7 8 8 7 9 8 9 9 9 9 8 9 20 20 20 19 10 9
3 0 3 2 3 2 5 5 4 4 7 7 8 6 7 7 6 8 8 8 8 8 8 8 9 10 10 10 10 14 10 12
4 4 5 3 4 4 5 5 3 4 5 6 6 6 4 5 6 6 6 8 5 6 6 7 10 12 17 14 10 10 10 7
7 4 6 4 4 4 3 2 3 4 4 4 4 5 5 5 4 8 7 9 12 13 10 6 14 20 21 19 21 23 17 5
10 7 4 4 4 2 2 0 2 2 3 3 4 4 3 3 3 4 6 6 6 12 14 13 14 17 20 16 14 20 13 7
8 7 6 5 7 4 2 3 2 1 1 2 1 1 2 2 2 2 1 2 4 5 10 14 14 18 20 21 11 9 12 5
5 6 7 7 8 5 4 4 4 3 2 2 1 1 1 1 2 2 2 2 3 4 7 11 14 14 16 17 6 3 6 7
Wind_Direction
339 337 332 328 327 320 315 311 307 300 289 258 233 222 223 230 220 220 220 213 211 214 217 224 224 220 214 217 223 219 222 224
344 338 337 336 338 333 331 329 323 314 298 246 233 228 222 215 221 211 223 206 209 212 219 223 227 221 219 224 229 227 228 228
339 337 342 346 347 348 347 339 333 331 337 41 63 30 10 229 246 249 219 222 222 220 224 227 223 218 223 228 227 232 237 232
340 344 347 354 355 358 354 348 344 356 17 40 59 59 49 47 38 32 34 44 33 11 274 247 240 240 238 239 237 237 241 244
348 347 349 3 4 3 352 354 355 9 28 42 46 53 48 43 33 47 43 41 53 34 62 37 39 34 14 358 358 9 11 352
345 347 354 3 2 358 2 357 352 13 31 33 42 50 50 44 35 31 42 43 42 52 24 61 53 15 20 3 347 350 346 348
345 350 355 1 357 360 2 356 354 16 24 28 32 46 46 46 34 38 38 43 30 44 38 45 43 13 26 3 345 341 355 337
348 348 350 354 353 2 358 351 4 11 18 29 28 32 44 41 40 36 36 32 36 41 31 38 35 19 21 355 343 345 345 321
351 353 350 350 358 351 358 2 11 16 17 18 35 26 40 51 40 40 38 36 32 38 28 30 22 17 12 1 352 343 326 332
357 2 356 360 348 349 359 359 13 15 15 17 16 31 41 51 52 39 31 35 32 34 31 26 16 11 8 7 348 348 346 330
353 5 26 358 346 0 360 1 7 357 1 5 9 35 40 38 46 24 30 36 32 32 28 27 12 3 8 6 344 344 344 349
47 32 6 349 347 10 0 12 342 344 1 10 5 18 23 32 38 25 33 31 33 31 22 19 13 5 9 4 3 354 345 340
79 23 7 9 3 13 13 333 333 353 11 8 1 13 21 37 37 27 24 28 21 15 14 11 6 5 3 359 2 355 344 342
137 29 358 12 11 355 330 329 337 357 15 3 1 25 20 41 37 34 29 31 23 19 11 0 360 359 357 358 359 357 349 350
159 239 290 327 330 298 321 327 353 12 37 40 44 24 26 44 46 42 32 28 23 16 11 358 359 357 351 352 351 350 349 354
188 211 244 278 298 316 337 347 16 47 48 46 50 45 24 31 28 47 34 34 28 17 10 351 3 360 358 4 1 360 2 343
192 201 235 243 272 298 344 5 48 53 48 33 38 35 25 22 6 10 29 40 35 31 24 18 14 9 7 11 16 15 16 21
198 202 195 218 252 265 295 328 71 79 69 52 49 44 40 37 17 5 344 12 12 22 25 19 21 20 18 15 19 25 24 36
180 193 198 204 229 210 212 193 154 204 189 101 73 68 76 68 50 58 24 307 312 329 19 22 28 29 27 24 25 17 20 15
172 193 189 205 229 179 181 189 198 166 213 174 121 171 145 106 102 56 33 11 330 327 351 6 19 32 33 36 52 20 9 352